Mount Werner, CO

4:00 PM MDT on April 23, 2017 (GMT -0600)
Mount Werner

Weather History for K3MW - September, 2013

Change the Weather History Date:

Tuesday, September 24, 2013

  Actual Average (KSBS) Record (KSBS)
Temperature  
Mean Temperature 44 °F -  
Max Temperature 53 °F 69 °F 83 °F (1943)
Min Temperature 35 °F 31 °F 6 °F (1926)
Degree Days  
Heating Degree Days 21    
Moisture  
Dew Point 19 °F    
Average Humidity 44    
Maximum Humidity 81    
Minimum Humidity 4    
Precipitation  
Precipitation 0.00 in - - ()
Sea Level Pressure  
Sea Level Pressure 30.35 in    
Wind  
Wind Speed 14 mph (SSW)    
Max Wind Speed 22 mph    
Max Gust Speed 31 mph    
Visibility 10 miles    
Events      
Averages and records for this station are not official NWS values.
T = Trace of Precipitation, MM = Missing Value Source: NWS Daily Summary

Daily Weather History Graph

Daily Weather History Graph

Search for Another Location

Airport or City:

Trip Planner

Search our weather history database for the weather conditions in past years. The results will help you decide how hot, cold, wet, or windy it might be!

Date:

Astronomy

Sep. 24, 2013 Rise Set
Actual Time 6:56 AM MDT 7:00 PM MDT
Civil Twilight 6:29 AM MDT 7:27 PM MDT
Nautical Twilight 5:57 AM MDT 7:59 PM MDT
Astronomical Twilight 5:25 AM MDT 8:31 PM MDT
Moon 10:19 PM MDT (9/24) 12:14 PM MDT (9/24)
Length of Visible Light 12h 57m
Length of Day
12h 03m
Waning Gibbous, 72% of the Moon is Illuminated
Sep 24
Waning Gibbous
Sep 26
Last Quarter
Oct 4
New
Oct 11
First Quarter
Oct 18
Full

Hourly Weather History & Observations

Time (MDT) Temp. Windchill Dew Point Humidity Pressure Visibility Wind Dir Wind Speed Gust Speed Precip Events Conditions
12:15 AM 35.6 °F 25.9 °F 30.2 °F 81% 30.37 in 10.0 mi WSW 16.1 mph 21.9 mph N/A   Clear
12:35 AM 37.4 °F 27.8 °F 28.4 °F 70% 30.38 in 10.0 mi WSW 17.3 mph 23.0 mph N/A   Clear
12:55 AM 37.4 °F 27.8 °F 28.4 °F 70% 30.38 in 10.0 mi SW 17.3 mph 23.0 mph N/A   Clear
1:15 AM 37.4 °F 27.8 °F 28.4 °F 70% 30.38 in 10.0 mi WSW 17.3 mph - N/A   Clear
1:35 AM 37.4 °F 28.5 °F 30.2 °F 75% 30.39 in 10.0 mi WSW 15.0 mph 20.7 mph N/A   Clear
1:55 AM 37.4 °F 28.9 °F 28.4 °F 70% 30.39 in 10.0 mi SW 13.8 mph 21.9 mph N/A   Clear
2:15 AM 37.4 °F 28.2 °F 30.2 °F 75% 30.39 in 10.0 mi WSW 16.1 mph 21.9 mph N/A   Clear
2:35 AM 37.4 °F 28.5 °F 30.2 °F 75% 30.38 in 10.0 mi SW 15.0 mph - N/A   Clear
2:55 AM 37.4 °F 27.8 °F 28.4 °F 70% 30.38 in 10.0 mi WSW 17.3 mph - N/A   Clear
3:15 AM 37.4 °F 28.9 °F 28.4 °F 70% 30.39 in 10.0 mi SW 13.8 mph - N/A   Clear
3:35 AM 37.4 °F 28.9 °F 28.4 °F 70% 30.39 in 10.0 mi SW 13.8 mph - N/A   Clear
3:55 AM 35.6 °F 26.2 °F 28.4 °F 75% 30.39 in 10.0 mi SW 15.0 mph - N/A   Clear
4:15 AM 37.4 °F 28.2 °F 28.4 °F 70% 30.39 in 10.0 mi SW 16.1 mph - N/A   Clear
4:35 AM 35.6 °F 25.9 °F 28.4 °F 75% 30.39 in 10.0 mi SW 16.1 mph - N/A   Clear
4:55 AM 37.4 °F 28.5 °F 28.4 °F 70% 30.39 in 10.0 mi SW 15.0 mph - N/A   Clear
5:15 AM 37.4 °F 28.9 °F 28.4 °F 70% 30.39 in 10.0 mi SSW 13.8 mph - N/A   Clear
5:35 AM 37.4 °F 29.3 °F 28.4 °F 70% 30.39 in 10.0 mi SW 12.7 mph - N/A   Clear
5:55 AM 37.4 °F 29.3 °F 28.4 °F 70% 30.39 in 10.0 mi SW 12.7 mph - N/A   Clear
6:15 AM 37.4 °F 28.9 °F 28.4 °F 70% 30.39 in 10.0 mi SSW 13.8 mph - N/A   Clear
6:35 AM 37.4 °F 28.9 °F 28.4 °F 70% 30.39 in 10.0 mi SSW 13.8 mph - N/A   Clear
6:55 AM 37.4 °F 29.3 °F 28.4 °F 70% 30.40 in 10.0 mi SSW 12.7 mph - N/A   Clear
7:15 AM 37.4 °F 30.3 °F 28.4 °F 70% 30.41 in 10.0 mi SW 10.4 mph - N/A   Clear
7:35 AM 37.4 °F 29.3 °F 28.4 °F 70% 30.41 in 10.0 mi SW 12.7 mph - N/A   Clear
7:55 AM 37.4 °F 29.8 °F 28.4 °F 70% 30.41 in 10.0 mi SW 11.5 mph - N/A   Clear
8:15 AM 37.4 °F 29.8 °F 28.4 °F 70% 30.41 in 10.0 mi SW 11.5 mph - N/A   Clear
8:35 AM 37.4 °F 29.8 °F 28.4 °F 70% 30.41 in 10.0 mi WSW 11.5 mph - N/A   Clear
8:55 AM 39.2 °F 33.0 °F 28.4 °F 65% 30.41 in 10.0 mi WSW 9.2 mph - N/A   Clear
9:15 AM 39.2 °F 33.6 °F 28.4 °F 65% 30.41 in 10.0 mi WSW 8.1 mph - N/A   Clear
9:35 AM 41.0 °F 35.8 °F 28.4 °F 61% 30.42 in 10.0 mi SW 8.1 mph - N/A   Clear
9:55 AM 41.0 °F 36.4 °F 28.4 °F 61% 30.42 in 10.0 mi SSW 6.9 mph - N/A   Clear
10:15 AM 42.8 °F 37.5 °F 26.6 °F 53% 30.42 in 10.0 mi South 9.2 mph - N/A   Clear
10:35 AM 42.8 °F 38.0 °F 24.8 °F 49% 30.42 in 10.0 mi South 8.1 mph - N/A   Clear
10:55 AM 42.8 °F 37.0 °F 21.2 °F 42% 30.41 in 10.0 mi South 10.4 mph - N/A   Clear
11:15 AM 44.6 °F 40.2 °F 19.4 °F 37% 30.41 in 10.0 mi South 8.1 mph - N/A   Clear
11:35 AM 44.6 °F 39.7 °F 17.6 °F 34% 30.41 in 10.0 mi SSW 9.2 mph - N/A   Clear
11:55 AM 44.6 °F 40.2 °F 19.4 °F 37% 30.41 in 10.0 mi SSW 8.1 mph - N/A   Clear
12:15 PM 46.4 °F 41.9 °F 10.4 °F 23% 30.40 in 10.0 mi SSW 9.2 mph - N/A   Clear
12:35 PM 46.4 °F 41.9 °F 17.6 °F 32% 30.39 in 10.0 mi SSW 9.2 mph - N/A   Clear
12:55 PM 48.2 °F - 15.8 °F 27% 30.39 in 10.0 mi South 9.2 mph - N/A   Clear
1:15 PM 50.0 °F - 17.6 °F 28% 30.39 in 10.0 mi South 12.7 mph 16.1 mph N/A   Clear
1:35 PM 50.0 °F - 19.4 °F 30% 30.38 in 10.0 mi SSW 10.4 mph 18.4 mph N/A   Clear
1:55 PM 50.0 °F - 21.2 °F 32% 30.37 in 10.0 mi SSW 8.1 mph 16.1 mph N/A   Clear
2:15 PM 50.0 °F - 21.2 °F 32% 30.36 in 10.0 mi South 10.4 mph - N/A   Clear
2:35 PM 51.8 °F - 21.2 °F 30% 30.35 in 10.0 mi SSW 12.7 mph - N/A   Clear
2:55 PM 51.8 °F - 21.2 °F 30% 30.34 in 10.0 mi South 13.8 mph - N/A   Clear
3:15 PM 51.8 °F - 21.2 °F 30% 30.34 in 10.0 mi SSW 12.7 mph 18.4 mph N/A   Clear
3:35 PM 51.8 °F - 23.0 °F 33% 30.34 in 10.0 mi SSW 9.2 mph 18.4 mph N/A   Clear
3:55 PM 51.8 °F - 23.0 °F 33% 30.33 in 10.0 mi South 8.1 mph 16.1 mph N/A   Clear
4:15 PM 53.6 °F - 23.0 °F 30% 30.32 in 10.0 mi SSW 6.9 mph - N/A   Clear
4:35 PM 53.6 °F - 23.0 °F 30% 30.32 in 10.0 mi South 8.1 mph - N/A   Clear
4:55 PM 53.6 °F - 17.6 °F 24% 30.31 in 10.0 mi SW 12.7 mph 18.4 mph N/A   Clear
5:15 PM 53.6 °F - 14.0 °F 21% 30.30 in 10.0 mi SSW 12.7 mph - N/A   Clear
5:35 PM 53.6 °F - 12.2 °F 19% 30.30 in 10.0 mi South 11.5 mph 17.3 mph N/A   Clear
5:55 PM 53.6 °F - 14.0 °F 21% 30.30 in 10.0 mi SW 8.1 mph 17.3 mph N/A   Clear
6:15 PM 51.8 °F - 15.8 °F 24% 30.30 in 10.0 mi SSW 9.2 mph - N/A   Clear
6:35 PM 51.8 °F - 10.4 °F 19% 30.29 in 10.0 mi SSW 15.0 mph 23.0 mph N/A   Clear
6:55 PM 51.8 °F - 10.4 °F 19% 30.28 in 10.0 mi South 18.4 mph 23.0 mph N/A   Clear
7:15 PM 51.8 °F - 3.2 °F 14% 30.27 in 10.0 mi South 19.6 mph 27.6 mph N/A   Clear
7:35 PM 50.0 °F - 3.2 °F 15% 30.26 in 10.0 mi SSE 21.9 mph 31.1 mph N/A   Clear
7:55 PM 50.0 °F - 8.6 °F 19% 30.27 in 10.0 mi SSE 20.7 mph 31.1 mph N/A   Clear
8:15 PM 50.0 °F - 14.0 °F 24% 30.27 in 10.0 mi SSE 16.1 mph 28.8 mph N/A   Clear
8:35 PM 50.0 °F - 14.0 °F 24% 30.26 in 10.0 mi SSE 18.4 mph 27.6 mph N/A   Clear
8:55 PM 50.0 °F - 12.2 °F 22% 30.26 in 10.0 mi SSE 20.7 mph - N/A   Clear
9:15 PM 50.0 °F - 8.6 °F 19% 30.26 in 10.0 mi SSE 19.6 mph 25.3 mph N/A   Clear
9:35 PM 48.2 °F - 8.6 °F 20% 30.26 in 10.0 mi SE 16.1 mph - N/A   Clear
9:55 PM 48.2 °F - 3.2 °F 16% 30.26 in 10.0 mi SE 16.1 mph 23.0 mph N/A   Clear
10:15 PM 48.2 °F - -2.2 °F 12% 30.25 in 10.0 mi SSE 17.3 mph 23.0 mph N/A   Clear
10:35 PM 50.0 °F - -16.6 °F 6% 30.24 in 10.0 mi SSE 19.6 mph 24.2 mph N/A   Clear
10:55 PM 50.0 °F - -23.8 °F 4% 30.23 in 10.0 mi SSE 17.3 mph - N/A   Clear
11:15 PM 50.0 °F - -18.4 °F 5% 30.23 in 10.0 mi SE 18.4 mph 23.0 mph N/A   Clear
11:35 PM 50.0 °F - -16.6 °F 6% 30.21 in 10.0 mi SE 20.7 mph 26.5 mph N/A   Clear
11:55 PM 48.2 °F - -16.6 °F 6% 30.22 in 10.0 mi SE 18.4 mph 25.3 mph N/A   Clear